{"data":{"norad_id":53243,"epoch":"2026-09-19T23:53:02.668128Z","epoch_age_seconds":118903,"freshness":"FRESH","line1":"1 53243U 22086B   26262.99516977  .00000650  00000+0  29520-4 0  9998","line2":"2 53243  53.1604  38.6583 0001333  81.1958 278.9196 15.35409746230778","mean_motion":15.35409746,"eccentricity":0.0001333,"inclination_deg":53.1604,"raan_deg":38.6583,"arg_perigee_deg":81.1958,"mean_anomaly_deg":278.9196,"bstar":2.952e-5,"rev_number":23077,"period_min":93.786040094603,"perigee_km":458.79222299885,"apogee_km":460.61519133138,"semimajor_km":6837.8407071651,"source":"CELESTRAK","updated_at":"2026-09-20T09:00:40.197774Z"}}